Location: Bakhuizen
(52.8696°N, 5.4575°E)
Time: 21:01:59
(UTC+00:00)

Okean 1-7 - Pass Details

Date: 11 May 2021
Orbit: 591 x 617 km, 82.5° (Epoch: 23 June)

Event Time Altitude Azimuth Distance (km) Brightness Sun altitude
Exits shadow 22:30:58 23° 113° (ESE) 1,267 4.3 -17.7°
Maximum altitude 22:32:04 26° 88° (E) 1,178 4.3 -17.7°
Drops below altitude 10° 22:35:40 10° 32° (NNE) 1,948 6.2 -17.9°
Sets 22:38:08 0° 20° (NNE) 2,861 7.4 -18.0°
